DIRECTV 12

Last updated on Mon Nov 03 2025 00:02:56 GMT+0000 (Coordinated Universal Time)

1 36131U 09075A 25306.44064588 -.00000092 00000+0 00000+0 0 9990 2 36131 0.0201 27.1689 0000709 226.6801 204.0590 1.00271371 44283
UTC large
Height (km)
Speed (km/s)
/
Latitude / Longitude
Inclination (degrees)
Orbital Period (minutes)
Azimuth
Elevation
Range (km)
Doppler Factor

Next 0 passes for location: London (51.5072 / 0.1276)

Sorry there are no passes over London.